Weather in Bol'shiye Katrasi

Russia / Chuvash Republic     56°03′56″N   47°07′37″E
temp.,
°C
wind,
m/s
gust,
m/s
humid.,
%
clouds,
%
prec.,
mm/h
press.,
hPa
HPBL,
m
11 may, tue
tue1100:00+10n61096100 0.3 1024256
03:00+9nne51097100 0.3 1024250
06:00+10nne6995100 0.0 1025249
09:00+15ne5781100 0.0 1026466
12:00+20ene4562100 0.0 1026860
15:00+23ene4554100 0.0 10261337
18:00+20ne367098 0.3 1026114
21:00+15ene3991100 1.7 1027176
12 may, wed
wed1200:00+14ne339087 0.8 102744
03:00+13ne34895 0.8 102755
06:00+15ene25855 0.0 1027139
09:00+20e575952 0.0 1027560
12:00+23ese5651100 0.0 10271178
15:00+24ese574679 0.0 10262217
18:00+20sse246785 0.0 102678
21:00+16s117597 0.0 102611
13 may, thu
thu1300:00+16sse116850 0.0 102611
03:00+15ese226579 0.0 102611
06:00+16ese257298 0.0 1026133
09:00+19ese596450 0.0 1026490
12:00+22se7104798 0.0 10241293
15:00+23se61052100 0.0 10231501
18:00+17se41177100 0.3 1023350
21:00+16ese5147694 0.4 1022356
14 may, fri
fri1400:00+15sse51280100 0.1 1021257
03:00+14sse49810 0.2 1021192
06:00+15sse387941 0.0 1022220
09:00+20s456214 0.0 1021514
12:00+23s4656100 0.0 10211035
15:00+24ssw3653100 0.0 10201468
18:00+22wsw1169100 0.0 102020
21:00+18se227992 0.0 101912
15 may, sat
sat1500:00+16s3476100 0.0 101959
03:00+15s4117570 0.0 1019185
06:00+16s3874100 0.0 1019183
09:00+21s5857100 0.0 1018388
12:00+25s61044100 0.0 1018938
15:00+27ssw5946100 0.0 10171406
18:00+23sse41063100 0.0 1017240
21:00+17s41463100 0.0 1016221